2023/10/07 00:00:00, 0.7,13.1
2023/10/07 00:10:00, 0.7,13.0
2023/10/07 00:20:00, 0.8,13.0
2023/10/07 00:30:00, 0.8,12.8
2023/10/07 00:40:00, 0.8,12.9
2023/10/07 00:50:00, 0.9,13.0
2023/10/07 01:00:00, 1.0,12.8
2023/10/07 01:10:00, 1.1,13.1
2023/10/07 01:20:00, 1.2,13.2
2023/10/07 01:30:00, 1.3,13.0
2023/10/07 01:40:00, 1.3,13.0
2023/10/07 01:50:00, 1.4,13.2
2023/10/07 02:00:00, 1.5,13.2
2023/10/07 02:10:00, 1.5,13.3
2023/10/07 02:20:00, 1.7,13.2
2023/10/07 02:30:00, 1.8,13.3
2023/10/07 02:40:00, 2.0,13.8
2023/10/07 02:50:00, 2.1,13.4
2023/10/07 03:00:00, 2.2,13.3
2023/10/07 03:10:00, 2.4,13.4
2023/10/07 03:20:00, 2.5,13.0
2023/10/07 03:30:00, 2.6,13.1
2023/10/07 03:40:00, 2.9,13.2
2023/10/07 03:50:00, 3.0,13.2
2023/10/07 04:00:00, 3.1,13.2
2023/10/07 04:10:00, 3.3,13.1
2023/10/07 04:20:00, 3.3,13.2
2023/10/07 04:30:00, 3.4,13.3
2023/10/07 04:40:00, 3.4,13.2
2023/10/07 04:50:00, 3.4,13.1
2023/10/07 05:00:00, 3.4,13.4
2023/10/07 05:10:00, 3.4,13.6
2023/10/07 05:20:00, 3.4,13.5
2023/10/07 05:30:00, 2.7,13.7
2023/10/07 05:40:00, 0.9,13.3
2023/10/07 05:50:00, 0.8,13.1
2023/10/07 06:00:00, 2.7,13.7
2023/10/07 06:10:00, 2.8,13.6
2023/10/07 06:20:00, 1.8,13.6
2023/10/07 06:30:00, 2.3,14.0
2023/10/07 06:40:00, 3.4,13.8
2023/10/07 06:50:00, 4.4,13.8
2023/10/07 07:00:00, 5.0,14.0
2023/10/07 07:10:00, 5.2,14.1
2023/10/07 07:20:00, 4.8,14.3
2023/10/07 07:30:00, 3.4,14.6
2023/10/07 07:40:00, 3.2,14.9
2023/10/07 07:50:00, 3.2,15.1
2023/10/07 08:00:00, 3.1,15.0
2023/10/07 08:10:00, 3.0,15.1
2023/10/07 08:20:00, 2.9,15.5
2023/10/07 08:30:00, 2.8,15.6
2023/10/07 08:40:00, 2.7,16.1
2023/10/07 08:50:00, 2.6,16.3
2023/10/07 09:00:00, 2.7,16.4
2023/10/07 09:10:00, 2.8,16.7
2023/10/07 09:20:00, 2.7,17.0
2023/10/07 09:30:00, 2.5,17.5
2023/10/07 09:40:00, 2.6,18.7
2023/10/07 09:50:00, 2.6,19.2
2023/10/07 10:00:00, 2.6,18.8
2023/10/07 10:10:00, 2.6,19.5
2023/10/07 10:20:00, 2.6,20.4
2023/10/07 10:30:00, 2.4,19.6
2023/10/07 10:40:00, 2.4,20.7
2023/10/07 10:50:00, 2.5,19.8
2023/10/07 11:00:00, 2.5,19.5
2023/10/07 11:10:00, 2.4,21.1
2023/10/07 11:20:00, 2.4,20.8
2023/10/07 11:30:00, 2.4,20.4
2023/10/07 11:40:00, 2.4,20.4
2023/10/07 11:50:00, 2.4,21.5
2023/10/07 12:00:00, 2.3,21.5
2023/10/07 12:10:00, 2.3,22.4
2023/10/07 12:20:00, 2.4,20.7
2023/10/07 12:30:00, 2.4,21.2
2023/10/07 12:40:00, 2.3,22.8
2023/10/07 12:50:00, 2.4,22.7
2023/10/07 13:00:00, 2.6,22.5
2023/10/07 13:10:00, 2.9,24.1
2023/10/07 13:20:00, 3.0,23.3
2023/10/07 13:30:00, 2.9,22.2
2023/10/07 13:40:00, 2.8,22.6
2023/10/07 13:50:00, 2.8,24.7
2023/10/07 14:00:00, 2.8,24.9
2023/10/07 14:10:00, 2.6,21.3
2023/10/07 14:20:00, 2.6,20.7
2023/10/07 14:30:00, 2.6,20.9
2023/10/07 14:40:00, 2.5,21.4
2023/10/07 14:50:00, 2.4,20.9
2023/10/07 15:00:00, 2.5,20.6
2023/10/07 15:10:00, 2.6,20.1
2023/10/07 15:20:00, 2.7,20.2
2023/10/07 15:30:00, 2.7,21.5
2023/10/07 15:40:00, 2.8,19.9
2023/10/07 15:50:00, 2.8,19.1
2023/10/07 16:00:00, 2.9,19.9
2023/10/07 16:10:00, 2.9,19.1
2023/10/07 16:20:00, 3.0,18.3
2023/10/07 16:30:00, 3.1,17.8
2023/10/07 16:40:00, 3.2,17.9
2023/10/07 16:50:00, 3.2,17.5
2023/10/07 17:00:00, 3.3,17.3
2023/10/07 17:10:00, 3.3,17.3
2023/10/07 17:20:00, 3.2,16.9
2023/10/07 17:30:00, 3.2,16.5
2023/10/07 17:40:00, 3.1,16.3
2023/10/07 17:50:00, 3.1,16.2
2023/10/07 18:00:00, 3.0,15.8
2023/10/07 18:10:00, 2.9,15.7
2023/10/07 18:20:00, 2.8,15.4
2023/10/07 18:30:00, 2.7,15.3
2023/10/07 18:40:00, 2.7,15.3
2023/10/07 18:50:00, 2.5,15.0
2023/10/07 19:00:00, 2.4,14.8
2023/10/07 19:10:00, 2.4,14.8
2023/10/07 19:20:00, 2.4,15.0
2023/10/07 19:30:00, 2.3,14.9
2023/10/07 19:40:00, 2.4,15.0
2023/10/07 19:50:00, 2.4,15.0
2023/10/07 20:00:00, 2.4,15.4
2023/10/07 20:10:00, 2.4,15.0
2023/10/07 20:20:00, 2.5,15.0
2023/10/07 20:30:00, 2.6,14.9
2023/10/07 20:40:00, 2.7,14.8
2023/10/07 20:50:00, 2.8,14.9
2023/10/07 21:00:00, 2.9,14.7
2023/10/07 21:10:00, 2.9,14.8
2023/10/07 21:20:00, 3.0,14.7
2023/10/07 21:30:00, 3.0,14.6
2023/10/07 21:40:00, 3.1,14.5
2023/10/07 21:50:00, 3.2,14.3
2023/10/07 22:00:00, 3.2,14.4
2023/10/07 22:10:00, 3.2,14.5
2023/10/07 22:20:00, 3.3,14.5
2023/10/07 22:30:00, 3.3,14.3
2023/10/07 22:40:00, 3.4,14.3
2023/10/07 22:50:00, 3.4,14.5
2023/10/07 23:00:00, 3.4,14.3
2023/10/07 23:10:00, 3.4,14.1
2023/10/07 23:20:00, 3.4,14.1
2023/10/07 23:30:00, 3.5,14.2
2023/10/07 23:40:00, 3.5,14.0
2023/10/07 23:50:00, 3.7,13.9
